Change the Weather History Date:

Friday, March 15, 2013

  Actual Average Record
Temperature  
Mean Temperature 50 °F -  
Max Temperature 54 °F 52 °F 68 °F (1965)
Min Temperature 46 °F 37 °F 27 °F (1955)
Degree Days  
Heating Degree Days 15    
Moisture  
Dew Point 47 °F    
Average Humidity 94    
Maximum Humidity 100    
Minimum Humidity 80    
Precipitation  
Precipitation 0.17 in - - ()
Sea Level Pressure  
Sea Level Pressure 30.17 in    
Wind  
Wind Speed 7 mph (SW)    
Max Wind Speed 14 mph    
Max Gust Speed 20 mph    
Visibility 10 miles    
Events Rain    
Averages and records for this station are not official NWS values.
T = Trace of Precipitation, MM = Missing Value Source: NWS Daily Summary

Daily Weather History Graph

Daily Weather History Graph

Search for Another Location

Airport or City:

Trip Planner

Search our weather history database for the weather conditions in past years. The results will help you decide how hot, cold, wet, or windy it might be!

Date:

Astronomy

Mar. 15, 2013 Rise Set
Actual Time 7:24 AM PDT 7:18 PM PDT
Civil Twilight 6:54 AM PDT 7:49 PM PDT
Nautical Twilight 6:18 AM PDT 8:24 PM PDT
Astronomical Twilight 5:42 AM PDT 9:01 PM PDT
Moon 9:00 AM PDT (3/15) 11:57 PM PDT (3/15)
Length of Visible Light 12h 54m
Length of Day
11h 53m
Waxing Crescent, 16% of the Moon is Illuminated
Mar 15
Waxing Crescent
Mar 19
First Quarter
Mar 27
Full
Apr 2
Last Quarter
Apr 10
New

Hourly Weather History & Observations

Time (PDT) Temp. Windchill Dew Point Humidity Pressure Visibility Wind Dir Wind Speed Gust Speed Precip Events Conditions
12:06 AM 48.2 °F - 46.4 °F 93% 30.13 in 9.0 mi SW 4.6 mph - N/A   Overcast
12:53 AM 48.0 °F - 48.0 °F 100% 30.15 in 8.0 mi SSW 3.5 mph - 0.03 in Rain Light Rain
1:10 AM 48.2 °F - 48.2 °F 100% 30.15 in 8.0 mi SSW 4.6 mph - 0.01 in   Overcast
1:34 AM 48.2 °F - 48.2 °F 100% 30.15 in 10.0 mi SW 5.8 mph - 0.03 in Rain Light Rain
1:53 AM 48.9 °F - 48.0 °F 97% 30.16 in 10.0 mi SW 3.5 mph - 0.05 in Rain Light Rain
2:33 AM 48.2 °F - 48.2 °F 100% 30.16 in 10.0 mi SW 3.5 mph - 0.02 in Rain Light Rain
2:53 AM 48.9 °F - 46.9 °F 93% 30.17 in 10.0 mi WSW 4.6 mph - 0.05 in Rain Light Rain
3:53 AM 48.0 °F - 46.9 °F 96% 30.17 in 10.0 mi WSW 5.8 mph - 0.01 in   Overcast
4:11 AM 48.2 °F - 46.4 °F 93% 30.16 in 10.0 mi SW 6.9 mph - N/A   Overcast
4:53 AM 46.9 °F - 46.9 °F 100% 30.16 in 10.0 mi SW 6.9 mph - N/A   Overcast
5:53 AM 46.9 °F - 46.9 °F 100% 30.18 in 10.0 mi WSW 6.9 mph - N/A   Overcast
6:12 AM 46.4 °F 42.4 °F 46.4 °F 100% 30.17 in 10.0 mi WSW 8.1 mph - N/A   Overcast
6:24 AM 46.4 °F 43.5 °F 46.4 °F 100% 30.17 in 10.0 mi WSW 5.8 mph - N/A   Overcast
6:32 AM 46.4 °F 42.9 °F 46.4 °F 100% 30.17 in 10.0 mi WSW 6.9 mph - N/A   Overcast
6:53 AM 46.9 °F - 46.0 °F 97% 30.18 in 10.0 mi WSW 6.9 mph - N/A   Overcast
7:49 AM 46.4 °F 42.4 °F 46.4 °F 100% 30.17 in 10.0 mi WSW 8.1 mph - N/A   Overcast
7:53 AM 46.9 °F - 46.0 °F 97% 30.18 in 10.0 mi WSW 8.1 mph - N/A   Overcast
8:00 AM 46.4 °F 42.9 °F 46.4 °F 100% 30.17 in 10.0 mi WSW 6.9 mph - N/A   Overcast
8:22 AM 48.2 °F - 46.4 °F 93% 30.18 in 10.0 mi WSW 6.9 mph - N/A   Overcast
8:53 AM 48.0 °F - 46.9 °F 96% 30.20 in 10.0 mi WSW 6.9 mph - 0.00 in Rain Light Rain
9:16 AM 48.2 °F - 48.2 °F 100% 30.19 in 10.0 mi WSW 5.8 mph - 0.01 in Rain Light Rain
9:24 AM 48.2 °F - 48.2 °F 100% 30.19 in 10.0 mi SW 5.8 mph - 0.02 in Rain Light Rain
9:53 AM 50.0 °F - 48.0 °F 93% 30.20 in 10.0 mi WSW 6.9 mph - 0.03 in   Overcast
10:33 AM 50.0 °F - 48.2 °F 94% 30.19 in 10.0 mi SW 6.9 mph - N/A   Overcast
10:53 AM 50.0 °F - 48.0 °F 93% 30.20 in 10.0 mi West 4.6 mph - N/A   Overcast
11:53 AM 52.0 °F - 48.9 °F 89% 30.20 in 10.0 mi WSW 8.1 mph - N/A   Overcast
12:53 PM 53.1 °F - 48.9 °F 86% 30.21 in 10.0 mi WSW 10.4 mph 16.1 mph N/A   Overcast
1:24 PM 53.6 °F - 48.2 °F 82% 30.20 in 10.0 mi SW 12.7 mph - N/A   Overcast
1:53 PM 53.1 °F - 48.9 °F 86% 30.20 in 10.0 mi West 10.4 mph - N/A   Overcast
2:22 PM 53.6 °F - 48.2 °F 82% 30.19 in 10.0 mi WSW 11.5 mph - N/A   Overcast
2:53 PM 54.0 °F - 48.0 °F 80% 30.19 in 10.0 mi SW 12.7 mph - N/A   Overcast
3:53 PM 52.0 °F - 48.9 °F 89% 30.18 in 10.0 mi WSW 11.5 mph - N/A   Overcast
4:53 PM 52.0 °F - 48.0 °F 86% 30.18 in 10.0 mi WSW 10.4 mph - N/A   Overcast
5:33 PM 51.8 °F - 46.4 °F 82% 30.16 in 10.0 mi WSW 12.7 mph - N/A   Mostly Cloudy
5:53 PM 51.1 °F - 46.9 °F 86% 30.18 in 10.0 mi WSW 13.8 mph 19.6 mph N/A   Mostly Cloudy
6:23 PM 50.0 °F - 46.4 °F 87% 30.16 in 10.0 mi WSW 9.2 mph - N/A   Overcast
6:50 PM 48.2 °F - 46.4 °F 93% 30.15 in 10.0 mi SW 10.4 mph - 0.00 in   Overcast
6:53 PM 48.9 °F - 46.9 °F 93% 30.17 in 10.0 mi SW 11.5 mph - 0.00 in   Overcast
7:31 PM 48.2 °F - 46.4 °F 93% 30.15 in 10.0 mi WSW 11.5 mph - N/A   Overcast
7:36 PM 48.2 °F - 46.4 °F 93% 30.15 in 10.0 mi WSW 11.5 mph - N/A   Overcast
7:51 PM 46.4 °F 41.5 °F 44.6 °F 93% 30.15 in 10.0 mi SW 10.4 mph - N/A   Mostly Cloudy
7:53 PM 46.9 °F - 45.0 °F 93% 30.17 in 10.0 mi WSW 9.2 mph - N/A   Mostly Cloudy
8:53 PM 46.9 °F - 45.0 °F 93% 30.16 in 10.0 mi WSW 8.1 mph - 0.00 in   Overcast
9:53 PM 46.0 °F 42.5 °F 45.0 °F 96% 30.16 in 10.0 mi SW 6.9 mph - 0.00 in   Overcast
10:53 PM 46.9 °F - 45.0 °F 93% 30.15 in 10.0 mi SW 8.1 mph - 0.00 in   Overcast
11:51 PM 46.4 °F 42.9 °F 46.4 °F 100% 30.13 in 10.0 mi SW 6.9 mph - N/A   Overcast
11:53 PM 46.9 °F - 46.0 °F 97% 30.14 in 10.0 mi SW 6.9 mph - N/A   Overcast